DW2363 Weather Reports


Display with metric or nautical units.
time (UTC)temp
F
wind
direction
speed
MPH
gust
MPH
rain 1hr
in
rain 24hr
in
rain mn
in
humidity
%
barometer
mb
20260509203203 74 172 2.0 9.0 0.00 0.00 0.00 65 1013.4
20260509202704 74 191 2.0 10.0 0.00 0.00 0.00 65 1013.5
20260509202203 74 188 2.0 10.0 0.00 0.00 0.00 65 1013.5
20260509201704 74 215 1.0 6.0 0.00 0.00 0.00 66 1013.5
20260509201204 74 167 1.0 4.0 0.00 0.00 0.00 66 1013.6
20260509200706 73 130 1.0 4.0 0.00 0.00 0.00 66 1013.5
20260509200702 74 160 1.0 4.0 0.00 0.00 0.00 64 1013.5
20260509195701 73 239 1.0 7.0 0.00 0.00 0.00 63 1013.6
20260509195202 74 126 2.0 7.0 0.00 0.00 0.00 66 1013.6
20260509194701 73 218 2.0 7.0 0.00 0.00 0.00 66 1013.6
20260509194201 73 157 2.0 7.0 0.00 0.00 0.00 68 1013.6
20260509193702 73 169 2.0 6.0 0.00 0.00 0.00 67 1013.7
20260509193206 73 75 2.0 7.0 0.00 0.00 0.00 68 1013.7
20260509193202 73 153 1.0 6.0 0.00 0.00 0.00 68 1013.7
20260509192159 73 136 3.0 10.0 0.00 0.00 0.00 67 1013.7
20260509191659 74 105 3.0 10.0 0.00 0.00 0.00 67 1013.7
20260509191203 73 20 3.0 8.0 0.00 0.00 0.00 68 1013.8
20260509191159 73 30 3.0 6.0 0.00 0.00 0.00 67 1013.8
20260509190159 73 29 3.0 8.0 0.00 0.00 0.00 68 1013.9
20260509185705 72 34 3.0 9.0 0.00 0.00 0.00 69 1013.8
20260509185659 73 34 4.0 9.0 0.00 0.00 0.00 68 1013.8
20260509185159 72 64 4.0 9.0 0.00 0.00 0.00 68 1013.8
20260509184200 72 355 3.0 9.0 0.00 0.00 0.00 68 1014.0
20260509183658 71 74 3.0 8.0 0.00 0.00 0.00 69 1013.9
20260509183157 70 78 3.0 7.0 0.00 0.00 0.00 70 1014.0
20260509182656 70 47 3.0 8.0 0.00 0.00 0.00 70 1013.9
20260509182201 70 348 3.0 8.0 0.00 0.00 0.00 70 1014.0
20260509182157 71 12 3.0 8.0 0.00 0.00 0.00 70 1013.9
20260509181201 71 47 2.0 6.0 0.00 0.00 0.00 69 1014.0
20260509181157 71 21 2.0 6.0 0.00 0.00 0.00 70 1014.0
20260509180202 71 52 2.0 7.0 0.00 0.00 0.00 71 1014.1
20260509180157 71 40 2.0 5.0 0.00 0.00 0.00 71 1014.0
20260509175158 70 80 2.0 7.0 0.00 0.00 0.00 72 1014.0
20260509174701 69 68 3.0 6.0 0.00 0.00 0.00 73 1014.0
20260509174657 70 103 2.0 5.0 0.00 0.00 0.00 73 1014.0
20260509173655 68 24 4.0 6.0 0.00 0.00 0.00 73 1014.1
20260509173200 69 46 4.0 7.0 0.00 0.00 0.00 71 1013.9
20260509173155 68 20 4.0 7.0 0.00 0.00 0.00 73 1014.0
20260509172155 69 59 3.0 6.0 0.00 0.00 0.00 70 1013.9
20260509171656 68 59 3.0 6.0 0.00 0.00 0.00 70 1013.8
20260509171153 67 52 4.0 6.0 0.00 0.00 0.00 71 1013.8
20260509170654 68 43 4.0 6.0 0.00 0.00 0.00 71 1013.7
20260509170153 69 41 3.0 6.0 0.00 0.00 0.00 65 1013.7
20260509165653 69 28 2.0 6.0 0.00 0.00 0.00 62 1013.6
20260509165153 69 57 2.0 5.0 0.00 0.00 0.00 65 1013.6
20260509164652 69 34 2.0 5.0 0.00 0.00 0.00 64 1013.6
20260509164153 69 40 2.0 5.0 0.00 0.00 0.00 67 1013.6
20260509163653 69 16 2.0 5.0 0.00 0.00 0.00 66 1013.6
20260509163152 69 51 2.0 5.0 0.00 0.00 0.00 68 1013.6
20260509162652 69 51 3.0 5.0 0.00 0.00 0.00 69 1013.6
20260509162153 69 28 3.0 6.0 0.00 0.00 0.00 63 1013.6
20260509161653 70 55 3.0 6.0 0.00 0.00 0.00 65 1013.6
20260509161153 69 78 3.0 6.0 0.00 0.00 0.00 67 1013.7
20260509160653 69 77 2.0 6.0 0.00 0.00 0.00 66 1013.6
20260509160152 69 38 3.0 6.0 0.00 0.00 0.00 62 1013.7
20260509155655 69 34 3.0 6.0 0.00 0.00 0.00 62 1013.6
20260509155651 69 47 3.0 6.0 0.00 0.00 0.00 62 1013.6
20260509154648 69 55 3.0 6.0 0.00 0.00 0.00 64 1013.7
20260509154149 68 96 3.0 6.0 0.00 0.00 0.00 64 1013.7
20260509153649 69 96 3.0 7.0 0.00 0.00 0.00 65 1013.7
20260509153151 68 95 3.0 7.0 0.00 0.00 0.00 63 1013.6
20260509153147 68 102 2.0 5.0 0.00 0.00 0.00 66 1013.7
20260509152152 67 49 3.0 5.0 0.00 0.00 0.00 65 1013.6
20260509152147 67 55 3.0 5.0 0.00 0.00 0.00 62 1013.7
20260509151147 67 42 3.0 5.0 0.00 0.00 0.00 62 1013.5
20260509150647 67 19 3.0 5.0 0.00 0.00 0.00 63 1013.6
20260509150146 67 34 3.0 6.0 0.00 0.00 0.00 66 1013.6
20260509145647 66 39 4.0 6.0 0.00 0.00 0.00 65 1013.6
20260509145146 65 53 4.0 6.0 0.00 0.00 0.00 67 1013.6
20260509144646 65 32 4.0 9.0 0.00 0.00 0.00 67 1013.6
20260509144147 65 37 5.0 9.0 0.00 0.00 0.00 68 1013.6
20260509143647 65 32 6.0 9.0 0.00 0.00 0.00 68 1013.6
20260509143146 64 16 7.0 9.0 0.00 0.00 0.00 69 1013.6
20260509142647 65 11 6.0 9.0 0.00 0.00 0.00 68 1013.6
20260509142146 65 0 5.0 9.0 0.00 0.00 0.00 69 1013.5
20260509141646 65 19 6.0 9.0 0.00 0.00 0.00 68 1013.5
20260509141147 65 24 5.0 8.0 0.00 0.00 0.00 69 1013.4
20260509140647 65 26 5.0 8.0 0.00 0.00 0.00 69 1013.4
20260509140146 64 26 6.0 8.0 0.00 0.00 0.00 70 1013.4
20260509135646 64 36 6.0 9.0 0.00 0.00 0.00 69 1013.4
20260509135146 64 31 6.0 9.0 0.00 0.00 0.00 71 1013.4
20260509134646 64 24 6.0 10.0 0.00 0.00 0.00 70 1013.4
20260509134146 63 36 6.0 10.0 0.00 0.00 0.00 73 1013.4
20260509133646 63 28 7.0 11.0 0.00 0.00 0.00 73 1013.2
20260509133146 63 37 8.0 11.0 0.00 0.00 0.00 72 1013.4
20260509132644 63 49 9.0 11.0 0.00 0.00 0.00 74 1013.2
20260509132253 62 30 9.0 11.0 0.00 0.00 0.00 76 1013.0
20260509132149 62 40 10.0 12.0 0.00 0.00 0.00 76 1013.0
20260509132145 62 36 10.0 12.0 0.00 0.00 0.00 75 1013.1
20260509130645 62 32 8.0 11.0 0.00 0.00 0.00 75 1013.0
20260509130145 62 11 9.0 12.0 0.00 0.00 0.00 73 1013.0
20260509125644 63 17 9.0 12.0 0.00 0.00 0.00 72 1013.0
20260509125142 63 49 8.0 11.0 0.00 0.00 0.00 72 1012.9
20260509124642 62 61 7.0 12.0 0.00 0.00 0.00 73 1012.9
20260509124142 62 45 7.0 12.0 0.00 0.00 0.00 75 1012.9
20260509123647 62 58 9.0 12.0 0.00 0.00 0.00 75 1012.9
20260509123643 62 43 9.0 12.0 0.00 0.00 0.00 76 1012.9
20260509123249 62 59 10.0 13.0 0.00 0.00 0.00 78 1012.9
20260509122140 62 51 10.0 13.0 0.00 0.00 0.00 78 1012.8
20260509121639 62 81 11.0 12.0 0.00 0.00 0.00 78 1012.8
20260509121138 62 105 10.0 12.0 0.00 0.00 0.00 79 1012.7
20260509120638 61 99 10.0 12.0 0.00 0.00 0.00 81 1012.8
20260509120136 61 91 10.0 12.0 0.00 0.00 0.00 82 1012.8
20260509115636 61 96 10.0 12.0 0.00 0.00 0.00 82 1012.8
20260509115136 61 96 10.0 14.0 0.00 0.00 0.00 84 1012.9
20260509114636 61 101 10.0 14.0 0.00 0.00 0.00 84 1012.9
20260509114136 61 90 12.0 14.0 0.00 0.00 0.00 83 1012.9
20260509113636 61 93 12.0 14.0 0.00 0.00 0.00 82 1012.8
20260509113140 61 84 11.0 14.0 0.00 0.00 0.00 82 1012.9
20260509113136 61 82 11.0 14.0 0.00 0.00 0.00 82 1012.8
20260509112743 61 74 11.0 14.0 0.00 0.00 0.00 83 1012.8
20260509112241 60 92 10.0 13.0 0.00 0.00 0.00 84 1012.8
20260509111134 60 89 10.0 13.0 0.00 0.00 0.00 85 1012.8
20260509110634 60 71 10.0 13.0 0.00 0.00 0.00 85 1012.9
20260509110134 61 76 11.0 13.0 0.00 0.00 0.00 84 1012.9
20260509105634 61 101 11.0 13.0 0.00 0.00 0.00 83 1012.9
20260509105134 61 105 11.0 13.0 0.00 0.00 0.00 82 1012.9
20260509104634 61 103 11.0 13.0 0.00 0.00 0.00 83 1013.0
20260509104134 61 113 12.0 14.0 0.00 0.00 0.00 83 1012.9
20260509103634 61 101 12.0 14.0 0.00 0.00 0.00 83 1013.0
20260509103132 60 103 11.0 13.0 0.00 0.00 0.00 86 1013.0
20260509102632 60 108 11.0 13.0 0.00 0.00 0.00 86 1013.0
20260509102132 60 109 12.0 13.0 0.00 0.00 0.00 83 1013.0
20260509101632 61 106 11.0 13.0 0.00 0.00 0.00 82 1013.0
20260509101132 61 116 11.0 12.0 0.00 0.00 0.00 82 1013.0
20260509100632 61 115 10.0 12.0 0.00 0.00 0.00 82 1013.0
20260509100131 61 99 9.0 11.0 0.00 0.00 0.00 82 1013.1
20260509095631 60 113 9.0 10.0 0.00 0.00 0.00 82 1013.1
20260509095131 60 82 9.0 10.0 0.00 0.00 0.00 83 1013.2
20260509094631 60 83 9.0 10.0 0.00 0.00 0.00 83 1013.2
20260509094136 61 84 9.0 11.0 0.00 0.00 0.00 81 1013.4
20260509094132 61 87 9.0 10.0 0.00 0.00 0.00 82 1013.2
20260509093738 60 77 10.0 13.0 0.00 0.00 0.00 83 1013.4
20260509092631 60 93 11.0 13.0 0.00 0.00 0.00 83 1013.4
20260509092131 60 98 10.0 13.0 0.00 0.00 0.00 83 1013.4
20260509091631 61 105 10.0 12.0 0.00 0.00 0.00 82 1013.4
20260509091131 61 86 10.0 12.0 0.00 0.00 0.00 80 1013.4
20260509090628 62 82 10.0 12.0 0.00 0.00 0.00 75 1013.4
20260509090128 62 39 10.0 11.0 0.00 0.00 0.00 78 1013.5
20260509085626 62 82 10.0 12.0 0.00 0.00 0.00 76 1013.5
20260509085126 62 96 10.0 12.0 0.00 0.00 0.00 74 1013.5
20260509084626 61 87 9.0 11.0 0.00 0.00 0.00 77 1013.5
20260509084126 61 0 8.0 10.0 0.00 0.00 0.00 79 1013.6
20260509083625 62 348 8.0 10.0 0.00 0.00 0.00 77 1013.6
20260509083125 62 30 8.0 10.0 0.00 0.00 0.00 77 1013.7
20260509082625 61 24 8.0 10.0 0.00 0.00 0.00 78 1013.7
20260509082125 61 23 9.0 11.0 0.00 0.00 0.00 80 1013.7
20260509081626 61 26 9.0 11.0 0.00 0.00 0.00 80 1013.7
20260509081131 61 46 8.0 10.0 0.00 0.00 0.00 80 1013.7
20260509081125 61 37 9.0 11.0 0.00 0.00 0.00 80 1013.8
20260509080125 60 41 6.0 10.0 0.00 0.00 0.00 85 1013.8
20260509075628 60 54 5.0 9.0 0.00 0.00 0.00 86 1014.0
20260509075623 60 58 5.0 9.0 0.00 0.00 0.00 86 1013.9
20260509074623 60 44 6.0 11.0 0.00 0.00 0.00 84 1014.0
20260509074124 60 32 6.0 11.0 0.00 0.00 0.00 84 1014.1
20260509073623 59 35 6.0 10.0 0.00 0.00 0.00 86 1014.0
20260509073124 59 63 6.0 9.0 0.00 0.00 0.00 87 1014.1
20260509072732 59 48 8.0 11.0 0.00 0.00 0.00 86 1014.0
20260509072627 60 68 8.0 11.0 0.00 0.00 0.00 86 1014.0
20260509072623 60 22 7.0 11.0 0.00 0.00 0.00 86 1014.0
20260509071122 59 62 9.0 12.0 0.00 0.00 0.00 86 1014.0
20260509070621 59 49 9.0 12.0 0.00 0.00 0.00 86 1014.1
20260509070121 59 56 9.0 13.0 0.00 0.00 0.00 86 1014.1
20260509065621 59 62 9.0 13.0 0.00 0.00 0.00 86 1014.2
20260509065121 59 68 8.0 12.0 0.00 0.00 0.00 86 1014.3
20260509064621 59 92 9.0 12.0 0.00 0.00 0.00 86 1014.3
20260509064125 59 101 8.0 11.0 0.00 0.00 0.00 85 1014.3
20260509064121 59 91 8.0 11.0 0.00 0.00 0.00 86 1014.3
20260509063121 59 92 8.0 11.0 0.00 0.00 0.00 85 1014.2
20260509062621 60 102 7.0 11.0 0.00 0.00 0.00 85 1014.2
20260509062121 60 71 8.0 11.0 0.00 0.00 0.00 84 1014.2
20260509061619 60 92 8.0 12.0 0.00 0.00 0.00 83 1014.2
20260509061119 60 91 9.0 12.0 0.00 0.00 0.00 82 1014.3
20260509060619 60 90 10.0 12.0 0.00 0.00 0.00 81 1014.3
20260509060119 61 101 11.0 12.0 0.00 0.00 0.00 80 1014.2
20260509055619 61 91 10.0 12.0 0.00 0.00 0.00 78 1014.3
20260509055120 61 92 10.0 12.0 0.00 0.00 0.00 77 1014.3
20260509054623 63 101 11.0 13.0 0.00 0.00 0.00 75 1014.5
20260509054619 62 98 10.0 12.0 0.00 0.00 0.00 77 1014.4
20260509053619 63 89 12.0 13.0 0.00 0.00 0.00 74 1014.4
20260509053116 63 84 12.0 13.0 0.00 0.00 0.00 72 1014.4
20260509052614 64 83 12.0 14.0 0.00 0.00 0.00 72 1014.4
20260509052115 64 134 11.0 14.0 0.00 0.00 0.00 71 1014.4
20260509051615 63 134 10.0 13.0 0.00 0.00 0.00 73 1014.4
20260509051120 64 69 11.0 14.0 0.00 0.00 0.00 74 1014.4
20260509051116 63 51 10.0 13.0 0.00 0.00 0.00 74 1014.5
20260509050115 65 64 12.0 14.0 0.00 0.00 0.00 73 1014.4
20260509045619 65 78 12.0 15.0 0.00 0.00 0.00 74 1014.3
20260509045615 65 80 12.0 15.0 0.00 0.00 0.00 72 1014.3
20260509044615 65 71 12.0 15.0 0.00 0.00 0.00 74 1014.3
20260509044112 65 80 11.0 15.0 0.00 0.00 0.00 73 1014.2
20260509043612 65 65 11.0 14.0 0.00 0.00 0.00 71 1014.2
20260509043113 66 82 11.0 14.0 0.00 0.00 0.00 72 1014.2
20260509042612 66 80 12.0 14.0 0.00 0.00 0.00 70 1014.1
20260509042113 66 34 12.0 14.0 0.00 0.00 0.00 69 1014.1
20260509041613 66 49 12.0 14.0 0.00 0.00 0.00 69 1014.0
20260509041110 66 5 11.0 14.0 0.00 0.00 0.00 70 1014.0
20260509040611 65 37 11.0 13.0 0.00 0.00 0.00 72 1014.0
20260509040111 65 42 9.0 13.0 0.00 0.00 0.00 73 1013.9
20260509035611 65 33 7.0 9.0 0.00 0.00 0.00 78 1014.0
20260509035111 65 57 7.0 8.0 0.00 0.00 0.00 77 1014.0
20260509034611 65 57 7.0 9.0 0.00 0.00 0.00 75 1014.0
20260509034111 66 62 8.0 9.0 0.00 0.00 0.00 73 1013.9
20260509033611 66 62 7.0 9.0 0.00 0.00 0.00 72 1013.9
20260509033111 66 57 7.0 10.0 0.00 0.00 0.00 72 1013.9
20260509032611 67 64 8.0 10.0 0.00 0.00 0.00 71 1013.8
20260509032111 67 74 8.0 10.0 0.00 0.00 0.00 71 1013.8
20260509031611 67 89 9.0 10.0 0.00 0.00 0.00 73 1013.7
20260509031110 67 95 8.0 10.0 0.00 0.00 0.00 73 1013.7
20260509030612 67 98 7.0 9.0 0.00 0.00 0.00 74 1013.7
20260509030111 67 103 7.0 8.0 0.00 0.00 0.00 74 1013.7
20260509025611 67 103 7.0 8.0 0.00 0.00 0.00 75 1013.6
20260509025115 67 107 6.0 7.0 0.00 0.00 0.00 75 1013.6
20260509025111 67 108 6.0 8.0 0.00 0.00 0.00 75 1013.6
20260509024111 67 108 5.0 7.0 0.00 0.00 0.00 75 1013.6
20260509023611 67 102 5.0 7.0 0.00 0.00 0.00 75 1013.6
20260509023111 67 102 4.0 6.0 0.00 0.00 0.00 75 1013.6
20260509022610 67 105 4.0 7.0 0.00 0.00 0.00 76 1013.5
20260509022115 66 104 2.0 4.0 0.00 0.00 0.00 77 1013.5
20260509022111 67 105 3.0 7.0 0.00 0.00 0.00 76 1013.5
20260509021111 66 94 1.0 4.0 0.00 0.00 0.00 77 1013.6
20260509020610 66 109 1.0 3.0 0.00 0.00 0.00 77 1013.5
20260509020108 67 109 2.0 8.0 0.00 0.00 0.00 77 1013.7
20260509015608 67 109 3.0 8.0 0.00 0.00 0.00 76 1013.5
20260509015109 68 92 4.0 8.0 0.00 0.00 0.00 73 1013.5
20260509015105 68 109 4.0 8.0 0.00 0.00 0.00 74 1013.4
20260509014104 68 94 3.0 7.0 0.00 0.00 0.00 73 1013.4
20260509013608 68 74 3.0 6.0 0.00 0.00 0.00 73 1013.5
20260509013604 68 86 3.0 7.0 0.00 0.00 0.00 73 1013.4
20260509013212 68 71 3.0 6.0 0.00 0.00 0.00 72 1013.5
20260509012712 68 67 2.0 5.0 0.00 0.00 0.00 73 1013.4
20260509011605 68 67 2.0 5.0 0.00 0.00 0.00 73 1013.4
20260509011104 68 77 2.0 4.0 0.00 0.00 0.00 73 1013.5
20260509010604 68 84 3.0 4.0 0.00 0.00 0.00 74 1013.5
20260509010104 68 86 4.0 7.0 0.00 0.00 0.00 73 1013.2
20260509005605 68 105 5.0 7.0 0.00 0.00 0.00 73 1013.4
20260509005104 68 102 5.0 7.0 0.00 0.00 0.00 71 1013.4
20260509004604 69 114 3.0 7.0 0.00 0.00 0.00 70 1013.4
20260509004104 70 108 2.0 6.0 0.00 0.00 0.00 69 1013.6
20260509003608 72 43 0.0 2.0 0.00 0.00 0.00 66 1013.5
20260509003604 71 105 0.0 3.0 0.00 0.00 0.00 67 1013.5
20260509002604 73 43 0.0 2.0 0.00 0.00 0.00 66 1013.4
20260509002102 73 43 0.0 2.0 0.00 0.00 0.00 67 1013.4
20260509001606 73 43 1.0 3.0 0.00 0.00 0.00 68 1013.6
20260509001602 73 43 0.0 2.0 0.00 0.00 0.00 67 1013.5
20260509000601 73 43 1.0 3.0 0.00 0.00 0.00 68 1013.6
20260509000106 74 14 1.0 3.0 0.00 0.00 0.00 66 1013.6
20260508235102 75 53 1.0 3.0 0.00 0.00 0.00 65 1013.7
20260508234602 75 242 1.0 3.0 0.00 0.00 0.00 65 1013.7
20260508234102 75 171 1.0 4.0 0.00 0.00 0.00 64 1013.6
20260508233601 75 200 1.0 4.0 0.00 0.00 0.00 64 1013.6
20260508233100 75 45 2.0 5.0 0.00 0.00 0.00 65 1013.6
20260508232606 73 296 3.0 7.0 0.00 0.00 0.00 64 1013.7
20260508232602 74 313 2.0 7.0 0.00 0.00 0.00 62 1013.6
20260508231601 74 286 3.0 7.0 0.00 0.00 0.00 63 1013.7
20260508231059 75 267 2.0 7.0 0.00 0.00 0.00 61 1013.7
20260508230602 76 316 1.0 5.0 0.00 0.00 0.00 60 1013.8
20260508230100 76 237 1.0 5.0 0.00 0.00 0.00 62 1013.9
20260508225602 77 118 1.0 4.0 0.00 0.00 0.00 61 1013.9
20260508225100 76 98 0.0 3.0 0.00 0.00 0.00 62 1014.0
20260508224602 76 101 1.0 3.0 0.00 0.00 0.00 63 1014.0
20260508224058 76 161 1.0 4.0 0.00 0.00 0.00 63 1014.1
20260508223558 75 268 1.0 5.0 0.00 0.00 0.00 63 1014.1
20260508223058 76 43 1.0 5.0 0.00 0.00 0.00 65 1014.2
20260508222557 75 314 2.0 6.0 0.00 0.00 0.00 65 1014.2
20260508222102 74 340 2.0 6.0 0.00 0.00 0.00 67 1014.3
20260508222058 74 323 2.0 6.0 0.00 0.00 0.00 65 1014.3
20260508221057 74 14 2.0 6.0 0.00 0.00 0.00 67 1014.4
20260508220558 73 54 2.0 6.0 0.00 0.00 0.00 68 1014.4
20260508220058 71 19 2.0 6.0 0.00 0.00 0.00 73 1014.4
20260508215557 69 315 3.0 8.0 0.00 0.00 0.00 74 1014.5
20260508215102 68 259 3.0 10.0 0.00 0.00 0.00 74 1014.6
20260508215058 68 293 3.0 8.0 0.00 0.00 0.00 75 1014.6
20260508214058 69 253 3.0 10.0 0.00 0.00 0.00 72 1014.8
20260508213557 70 269 4.0 10.0 0.00 0.00 0.00 70 1014.8
20260508213057 71 265 3.0 10.0 0.00 0.00 0.00 70 1014.8
20260508212557 70 304 3.0 8.0 0.00 0.00 0.00 70 1014.9
20260508212058 71 263 3.0 8.0 0.00 0.00 0.00 70 1014.9
20260508211556 72 271 2.0 7.0 0.00 0.00 0.00 68 1014.9
20260508211055 73 275 2.0 6.0 0.00 0.00 0.00 66 1015.0
20260508210556 74 319 1.0 5.0 0.00 0.00 0.00 67 1015.0
20260508210055 74 320 1.0 5.0 0.00 0.00 0.00 68 1015.1
20260508205555 73 329 2.0 7.0 0.00 0.00 0.00 68 1015.1
20260508205056 72 37 3.0 7.0 0.00 0.00 0.00 70 1015.1
20260508204556 72 30 2.0 8.0 0.00 0.00 0.00 71 1015.2
20260508204100 71 9 3.0 9.0 0.00 0.00 0.00 73 1015.2
20260508204056 71 71 2.0 8.0 0.00 0.00 0.00 72 1015.2